Regional Weather Roundup
Issued by NWS Albany, NY

Home | Current Version | Previous Version | Graphics & Text | Print | Product List | Glossary Off
Versions: 1 2 3 4 5 6 7 8 9 10 11 12 13 14 15 16 17 18 19 20 21 22 23 24 25 26 27 28 29 30 31 32 33 34 35 36 37 38 39 40 41 42 43 44 45 46 47 48 49 50

000
ASUS41 KALY 020210
RWRALY

NEW YORK STATE HOURLY WEATHER ROUNDUP
NATIONAL WEATHER SERVICE ALBANY NY
1000 PM EDT MON JUN 01 2015

NOTE: "FAIR" INDICATES FEW OR NO CLOUDS BELOW 12,000 FEET WITH NO
SIGNIFICANT WEATHER AND/OR NO OBSTRUCTIONS TO VISIBILITY.

NYZ032-033-038>043-046>054-057>066-NYZ062>081-020300-
EAST


CITY           SKY/WX    TMP DP  RH WIND       PRES   REMARKS
ALBANY         DRIZZLE   53  48  83 CALM      30.21R
GLENS FALLS    CLOUDY    50  47  89 NE8       30.21R
POUGHKEEPSIE   HVY RAIN  50  48  93 NE7       30.19R FOG
NEWBURGH       LGT RAIN  50  50 100 E12       30.19R FOG
MONTGOMERY     LGT RAIN  51  50  96 NE10      30.17S
WHITE PLAINS   RAIN      50  48  93 NE8       30.16R FOG
ISLIP          DRIZZLE   51  49  92 NE9       30.13R FOG
NEW YORK CITY  DRIZZLE   53  51  93 NE20      30.15R FOG
CENTRAL PARK   CLOUDY    54  51  90 E9G16     30.18R FOG
$$

NYZ005>009-017-018-044>046-055-056-020300-
CENTRAL


CITY           SKY/WX    TMP DP  RH WIND       PRES   REMARKS
FULTON         CLOUDY    53  49  86 CALM      30.16S
SYRACUSE       DRIZZLE   52  52 100 NE7       30.14S
ROME           CLOUDY    51  50  96 E5        30.17S
ELMIRA         CLOUDY    55  51  86 W3        30.15R
BINGHAMTON     FOG       52  51  97 NW6       30.13R VSB 3/4
MONTICELLO     CLOUDY    48  48 100 E8        30.16R
$$

NYZ026>034-041>043-020300-
NORTH


CITY           SKY/WX    TMP DP  RH WIND       PRES   REMARKS
WATERTOWN      CLOUDY    53  52  96 NE9       30.17S
FORT DRUM      NOT AVBL
MASSENA        CLOUDY    53  47  79 NE14      30.22S
SARANAC LAKE   CLOUDY    47  46  97 E5        30.18S
PLATTSBURGH    LGT RAIN  51  50  96 NE6       30.23S
$$

NYZ001>004-010>016-019>021-020300-
WEST


CITY           SKY/WX    TMP DP  RH WIND       PRES   REMARKS
NIAGARA FALLS  CLOUDY    53  48  83 NE5       30.18S
BUFFALO        CLOUDY    52  49  89 E5        30.19R
DUNKIRK        CLOUDY    52  49  89 NE5       30.18S
JAMESTOWN      CLOUDY    48  45  87 NE9       30.17S
WELLSVILLE     CLOUDY    49  47  93 N5        30.17R FOG
ROCHESTER      LGT RAIN  52  50  93 N9        30.19S FOG
PENN YAN       CLOUDY    53  51  93 NW5       30.16R
$$

             KEY
       WCI = WIND CHILL INDEX
       VSB = VISIBILITY
       HX  = HEAT INDEX
$$



USA.gov is the U.S. government's official web portal to all federal, state and local government web resources and services.